Date String (YYYY-MM-DD hh:mm:ss) UTC,Instrument flags,Ambient pressure (hPa),Sample flow (lpm),Bypass flow (lpm),Sample temperature (°C),Ambient temperature (°C),ASC tube jacket temperature (°C),LED temperature (°C),Box temperature (°C),Sample RH (%),Span deviation,Mass concentration (μg/m³),Mass concentration (μg/m³),Mass concentration (μg/m³)
DateTimeUTC,F1_M11,P_M11,Q1_M11,Q2_M11,T1_M11,T2_M11,T3_M11,T4_M11,T5_M11,U1_M11,ZSPAN_M11,X0_M11,X2_M11,X1_M11
2021-12-19 11:00:00,,0824.1,4.99,0.00,22.6,21.8,00.0,31.5,24.3,05.7,0000.0,0004.05,0002.10,0001.65
2021-12-19 11:01:00,,0824.1,5.00,0.00,22.6,21.8,00.0,31.5,24.3,05.7,0000.0,0003.22,0002.07,0001.65
2021-12-19 11:02:00,,0824.1,5.00,0.00,22.6,21.8,00.0,31.5,24.2,05.7,0000.0,0003.15,0002.08,0001.65
2021-12-19 11:03:00,,0824.2,5.00,0.00,22.6,21.8,00.0,31.5,24.2,05.7,0000.0,0003.12,0002.06,0001.65
2021-12-19 11:04:00,,0824.1,5.01,0.00,22.5,21.8,00.0,31.5,24.3,05.7,0000.0,0003.10,0002.03,0001.63
2021-12-19 11:05:00,,0824.1,4.99,0.00,22.5,21.7,00.0,31.5,24.2,05.7,0000.0,0003.03,0001.95,0001.58
2021-12-19 11:06:00,,0824.1,5.01,0.00,22.5,21.7,00.0,31.5,24.2,05.7,0000.0,0002.96,0001.91,0001.54
2021-12-19 11:07:00,,0824.1,5.00,0.00,22.5,21.7,00.0,31.5,24.2,05.7,0000.0,0002.95,0001.88,0001.51
2021-12-19 11:08:00,,0824.1,4.99,0.00,22.5,21.7,00.0,31.5,24.1,05.7,0000.0,0002.88,0001.85,0001.49
2021-12-19 11:09:00,,0824.1,5.02,0.00,22.5,21.7,00.0,31.5,24.1,05.7,0000.0,0002.78,0001.79,0001.45
2021-12-19 11:10:00,,0824.1,4.99,0.00,22.4,21.6,00.0,31.5,24.1,05.7,0000.0,0002.65,0001.72,0001.42
2021-12-19 11:11:00,,0824.1,4.99,0.00,22.4,21.6,00.0,31.5,24.1,05.7,0000.0,0002.56,0001.68,0001.37
2021-12-19 11:12:00,,0824.1,5.00,0.00,22.4,21.6,00.0,31.4,24.0,05.7,0000.0,0002.39,0001.58,0001.31
2021-12-19 11:13:00,,0824.2,5.00,0.00,22.4,21.6,00.0,31.4,24.0,05.7,0000.0,0002.33,0001.53,0001.26
2021-12-19 11:14:00,,0824.1,5.01,0.00,22.4,21.5,00.0,31.4,24.0,05.8,0000.0,0002.33,0001.48,0001.22
2021-12-19 11:15:00,,0824.1,4.99,0.00,22.3,21.5,00.0,31.4,24.0,05.8,0000.0,0002.36,0001.46,0001.18
2021-12-19 11:16:00,,0824.1,5.01,0.00,22.3,21.5,00.0,31.4,24.0,05.7,0000.0,0002.20,0001.39,0001.14
2021-12-19 11:17:00,,0824.1,4.99,0.00,22.3,21.6,00.0,31.4,24.0,05.7,0000.0,0002.22,0001.39,0001.12
2021-12-19 11:18:00,,0824.1,5.01,0.00,22.4,22.1,00.0,31.4,24.2,05.7,0000.0,0002.12,0001.36,0001.10
2021-12-19 11:19:00,,0824.1,5.00,0.00,22.5,22.9,00.0,31.4,24.4,05.7,0000.0,0002.19,0001.36,0001.07
2021-12-19 11:20:00,,0824.1,4.99,0.00,22.7,23.5,00.0,31.5,24.7,05.9,0000.0,0002.18,0001.34,0001.05
2021-12-19 11:21:00,,0824.1,5.01,0.00,22.8,23.3,00.0,31.5,24.7,06.1,0000.0,0002.12,0001.29,0000.99
2021-12-19 11:22:00,,0824.1,5.01,0.00,22.8,23.1,00.0,31.5,24.7,06.2,0000.0,0001.95,0001.21,0000.95
2021-12-19 11:23:00,,0824.1,4.99,0.00,22.8,22.8,00.0,31.6,24.6,05.8,0000.0,0001.89,0001.18,0000.92
2021-12-19 11:24:00,,0824.1,5.01,0.00,22.7,22.6,00.0,31.6,24.4,05.6,0000.0,0001.87,0001.17,0000.91
2021-12-19 11:25:00,,0824.1,5.00,0.00,22.7,22.4,00.0,31.6,24.4,05.6,0000.0,0001.74,0001.13,0000.89
2021-12-19 11:26:00,,0824.0,5.01,0.00,22.7,22.3,00.0,31.6,24.4,05.6,0000.0,0001.59,0001.07,0000.85
2021-12-19 11:27:00,,0824.1,4.99,0.00,22.7,22.2,00.0,31.6,24.4,05.6,0000.0,0001.57,0001.07,0000.83
2021-12-19 11:28:00,,0824.1,5.01,0.00,22.6,22.1,00.0,31.6,24.3,05.6,0000.0,0001.46,0001.00,0000.80
2021-12-19 11:29:00,,0824.1,4.99,0.00,22.6,22.0,00.0,31.6,24.3,05.6,0000.0,0001.47,0000.99,0000.79
2021-12-19 11:30:00,,0824.1,5.01,0.00,22.6,22.0,00.0,31.6,24.3,05.6,0000.0,0001.47,0000.99,0000.79
2021-12-19 11:31:00,,0824.1,4.99,0.00,22.6,21.9,00.0,31.6,24.2,05.8,0000.0,0001.53,0001.02,0000.81
2021-12-19 11:32:00,,0824.1,5.00,0.00,22.6,21.9,00.0,31.5,24.2,05.9,0000.0,0001.60,0001.08,0000.88
2021-12-19 11:33:00,,0824.1,5.01,0.00,22.5,21.8,00.0,31.5,24.2,06.1,0000.0,0002.49,0001.24,0001.00
2021-12-19 11:34:00,,0824.1,4.99,0.00,22.5,21.8,00.0,31.5,24.2,05.9,0000.0,0002.91,0001.38,0001.13
2021-12-19 11:35:00,,0824.0,5.00,0.00,22.5,21.7,00.0,31.5,24.2,05.8,0000.0,0003.40,0001.47,0001.20
2021-12-19 11:36:00,,0824.0,4.98,0.00,22.5,21.7,00.0,31.5,24.1,05.8,0000.0,0003.75,0001.60,0001.27
2021-12-19 11:37:00,,0824.1,5.01,0.00,22.5,21.7,00.0,31.5,24.1,05.8,0000.0,0003.93,0001.71,0001.34
2021-12-19 11:38:00,,0824.1,4.99,0.00,22.5,21.7,00.0,31.5,24.1,05.8,0000.0,0004.00,0001.78,0001.40
2021-12-19 11:39:00,,0824.1,5.01,0.00,22.4,21.7,00.0,31.5,24.1,05.8,0000.0,0004.15,0001.89,0001.47
2021-12-19 11:40:00,,0824.1,5.00,0.00,22.4,21.7,00.0,31.5,24.1,05.8,0000.0,0004.22,0001.96,0001.54
2021-12-19 11:41:00,,0824.1,5.00,0.00,22.4,21.7,00.0,31.5,24.1,05.8,0000.0,0004.30,0002.04,0001.64
2021-12-19 11:42:00,,0824.0,5.01,0.00,22.4,21.7,00.0,31.5,24.1,05.7,0000.0,0004.37,0002.10,0001.70
2021-12-19 11:43:00,,0824.0,4.99,0.00,22.4,21.6,00.0,31.4,24.1,05.8,0000.0,0004.53,0002.16,0001.73
2021-12-19 11:44:00,,0824.1,5.00,0.00,22.4,21.6,00.0,31.4,24.1,05.8,0000.0,0003.96,0002.17,0001.77
2021-12-19 11:45:00,,0824.1,5.00,0.00,22.4,21.6,00.0,31.4,24.1,05.7,0000.0,0003.63,0002.14,0001.75
2021-12-19 11:46:00,,0824.1,5.01,0.00,22.4,21.6,00.0,31.4,24.1,05.7,0000.0,0003.42,0002.20,0001.74
2021-12-19 11:47:00,,0824.1,4.99,0.00,22.4,21.6,00.0,31.4,24.1,05.7,0000.0,0004.09,0002.19,0001.73
2021-12-19 11:48:00,,0824.1,5.00,0.00,22.4,21.7,00.0,31.4,24.1,05.7,0000.0,0004.76,0002.12,0001.71
2021-12-19 11:49:00,,0824.0,4.99,0.00,22.4,21.7,00.0,31.4,24.1,05.7,0000.0,0004.70,0002.08,0001.67
2021-12-19 11:50:00,,0824.0,5.00,0.00,22.4,21.7,00.0,31.4,24.1,05.7,0000.0,0004.55,0002.00,0001.64
2021-12-19 11:51:00,,0824.1,5.00,0.00,22.4,21.7,00.0,31.4,24.1,05.7,0000.0,0004.86,0002.01,0001.62
2021-12-19 11:52:00,,0824.1,5.00,0.00,22.4,21.7,00.0,31.4,24.1,05.7,0000.0,0004.90,0001.97,0001.58
2021-12-19 11:53:00,,0824.1,4.99,0.00,22.4,21.7,00.0,31.4,24.1,05.8,0000.0,0004.84,0001.95,0001.56
2021-12-19 11:54:00,,0824.0,5.01,0.00,22.4,21.7,00.0,31.4,24.1,05.8,0000.0,0004.77,0001.91,0001.53
2021-12-19 11:55:00,,0824.0,5.00,0.00,22.4,21.6,00.0,31.4,24.1,05.8,0000.0,0005.59,0001.89,0001.48
2021-12-19 11:56:00,,0824.0,4.99,0.00,22.4,21.6,00.0,31.4,24.1,05.8,0000.0,0005.67,0001.89,0001.45
2021-12-19 11:57:00,,0824.0,5.00,0.00,22.4,21.6,00.0,31.3,24.1,05.8,0000.0,0005.70,0001.84,0001.45
2021-12-19 11:58:00,,0823.9,4.99,0.00,22.4,21.8,00.0,31.4,24.1,05.8,0000.0,0004.84,0001.86,0001.46
2021-12-19 11:59:00,,0823.9,5.00,0.00,22.5,22.4,00.0,31.4,24.3,05.8,0000.0,0004.13,0001.90,0001.50
